Погода в Баянхонгоре

Монголия     46°11′12″N   100°42′50″E
темп.,
°C
ветер,
м/с
пор.,
м/с
влажн.,
%
обл.,
%
осадки,
мм/ч
давл.,
гПа
погр.,
м
17 мая, пн
пн1723:00+9всв114263 0.0 101319
02:00+8всв224319 0.0 101414
05:00+6всв22420 0.0 101210
08:00+9вюв11342 0.0 1013163
11:00+13зюз34252 0.0 10111319
14:00+17зюз771637 0.0 10073553
17:00+17зюз771368 0.0 10053527
20:00+16з46141 0.0 1004176
18 мая, вт
вт1823:00+12с22233 0.0 100619
02:00+10ссв333622 0.0 100722
05:00+8ссз224010 0.0 100711
08:00+11сз233358 0.0 1007180
11:00+15сз792335 0.0 10052484
14:00+17зсз691980 0.0 10033459
17:00+18ссз891982 0.0 10013150
20:00+15с68262 0.0 1003624
19 мая, ср
ср1923:00+11ссв113581 0.0 100510
02:00+8ю225842 0.0 100736
05:00+6ссв116827 0.0 100710
08:00+10с015344 0.0 1006185
11:00+15з47265 0.0 10031832
14:00+19зюз91021100 0.0 9993312
17:00+19юз9101840 0.1 9973196
20:00+12с5647100 0.5 1001266
20 мая, чт
чт2023:00+11всв225218 0.4 100116
02:00+9ссв11562 0.4 100010
05:00+8всв11565 0.0 100010
08:00+11ююз11447 0.0 999179
11:00+17зюз710250 0.0 9962043
14:00+19юз1112182 0.0 9943086
17:00+19зюз10141316 0.0 9904224
20:00+16зюз121428100 0.0 9922587
21 мая, пт
пт2123:00+12з59398 0.4 993374
02:00+10з101647100 0.4 9921544
05:00+4з915330 0.0 9961672
08:00+3сз1113332 0.0 10011467
11:00+2сз1416152 0.0 10052755
14:00+4зсз121713100 0.0 10043699
17:00+5зсз152017100 0.0 10033327
20:00+3сз101617100 0.0 10062524